Regional Weather Roundup
Issued by NWS

Current Version | Previous Version | Text Only | Print | Product List | Glossary Off
Versions: 1 2 3 4 5 6 7 8 9 10 11 12 13 14 15 16 17 18 19 20 21 22 23 24 25 26 27

000
ASUS44 KBMX 260410
RWRAL

ALABAMA REGIONAL WEATHER ROUNDUP
NATIONAL WEATHER SERVICE BIRMINGHAM AL
1100 PM CDT SAT JUN 25 2016

NOTE: "FAIR" INDICATES FEW OR NO CLOUDS BELOW 12,000 FEET
WITH NO SIGNIFICANT WEATHER AND/OR OBSTRUCTIONS TO VISIBILITY.

THE REMARK "TC" DENOTES TEMPERATURE IN DEGREES CELSIUS.

ALZ001>011-014-016>018-020-260500-
NORTH ALABAMA

CITY           SKY/WX    TMP DP  RH WIND       PRES   REMARKS
MUSCLE SHOALS  CLOUDY    78  73  84 CALM      30.10S
HUNTSVILLE     CLOUDY    78  65  63 E8        30.10F
DECATUR        CLOUDY    77  66  68 E7        30.11R
HALEYVILLE     FAIR      77  74  90 CALM      30.13S
GADSDEN        CLOUDY    78  72  81 N3        30.11R
$$

ALZ012-013-022-023-030>036-040>044-260500-
WEST CENTRAL ALABAMA

CITY           SKY/WX    TMP DP  RH WIND       PRES   REMARKS
TUSCALOOSA     PTCLDY    79  74  84 CALM      30.08R
$$

ALZ015-024>027-033>036-040>044-260500-
CENTRAL ALABAMA

CITY           SKY/WX    TMP DP  RH WIND       PRES   REMARKS
BIRMINGHAM     CLOUDY    79  75  87 CALM      30.12R
MONTGOMERY     CLEAR     82  73  74 CALM      30.06R
SHELBY CO ARPT PTCLDY    80  74  81 CALM      30.09R
MAXWELL AFB    CLEAR     81  74  78 N3        30.06R
GREENVILLE     FAIR      78  73  84 CALM      30.07R
$$

ALZ019-021-028-029-037-038-045>048-260500-
EAST CENTRAL ALABAMA

CITY           SKY/WX    TMP DP  RH WIND       PRES   REMARKS
ANNISTON       CLOUDY    77  71  82 SW3       30.10R
ALEXANDER CITY PTCLDY    78  78 100 CALM      30.09S
AUBURN         CLOUDY    81  74  79 CALM      30.10S
$$

ALZ051>064-260500-
SOUTHWEST ALABAMA

CITY           SKY/WX    TMP DP  RH WIND       PRES   REMARKS
MOBILE         CLEAR     79  72  79 SW5       30.09S
BROOKLEY FIELD CLEAR     81  75  82 W3        30.09S
EVERGREEN      CLEAR     82  73  74 SW7       30.07S
$$

ALZ049-050-065>069-260500-
SOUTHEAST ALABAMA

CITY           SKY/WX    TMP DP  RH WIND       PRES   REMARKS
DOTHAN         PTCLDY    82  70  66 SW6       30.11R
OZARK          CLOUDY    83  74  73 S5        30.07R HX  90
TROY           PTCLDY    79  75  87 CALM      30.08R
EUFAULA        FAIR      77  70  79 CALM      30.06R
$$




USA.gov is the U.S. government's official web portal to all federal, state and local government web resources and services.